Regional Weather Roundup
Issued by NWS Albany, NY

Current Version | Previous Version | Graphics & Text | Print | Product List | Glossary Off
Versions: 1 2 3 4 5 6 7 8 9 10 11 12 13 14 15 16 17 18 19 20 21 22 23 24 25 26 27 28 29 30 31 32 33 34 35 36 37 38 39 40 41 42 43 44 45 46 47 48 49 50

000
ASUS41 KALY 292310
RWRALY

NEW YORK STATE HOURLY WEATHER ROUNDUP
NATIONAL WEATHER SERVICE ALBANY NY
700 PM EDT FRI AUG 29 2014

NOTE: "FAIR" INDICATES FEW OR NO CLOUDS BELOW 12,000 FEET WITH NO
SIGNIFICANT WEATHER AND/OR NO OBSTRUCTIONS TO VISIBILITY.

NYZ032-033-038>043-046>054-057>066-NYZ062>081-300000-
EAST


CITY           SKY/WX    TMP DP  RH WIND       PRES   REMARKS
ALBANY         PTCLDY    74  55  51 N5        30.17S
GLENS FALLS    CLEAR     72  55  55 CALM      30.17S
POUGHKEEPSIE   CLEAR     72  57  59 SE3       30.17R
NEWBURGH       PTCLDY    73  54  49 VRB6      30.19S
MONTGOMERY     CLEAR     72  52  49 E5        30.18R
WHITE PLAINS   PTCLDY    71  52  50 SE7       30.19R
ISLIP          MOCLDY    69  54  58 S8        30.19R
NEW YORK CITY  MOCLDY    72  53  51 S14       30.19R
CENTRAL PARK   PTCLDY    72  52  49 VRB3      30.22R
$$

NYZ005>009-017-018-044>046-055-056-300000-
CENTRAL


CITY           SKY/WX    TMP DP  RH WIND       PRES   REMARKS
FULTON         PTCLDY    69  58  67 N6        30.15S
SYRACUSE       MOCLDY    72  57  59 CALM      30.15S
ROME           PTCLDY    70  58  65 E3        30.17S
ELMIRA         CLEAR     73  55  53 S6        30.15R
BINGHAMTON     PTCLDY    69  53  56 SE3       30.19R
MONTICELLO     PTCLDY    70  54  56 S5        30.21S
$$

NYZ026>034-041>043-300000-
NORTH


CITY           SKY/WX    TMP DP  RH WIND       PRES   REMARKS
WATERTOWN      CLEAR     70  56  61 SW5       30.15S
FORT DRUM      NOT AVBL
MASSENA        PTCLDY    71  58  63 E5        30.15S
SARANAC LAKE   MOCLDY    69  51  52 CALM      30.16S
PLATTSBURGH    MOCLDY    66  56  70 CALM      30.16S
$$

NYZ001>004-010>016-019>021-300000-
WEST


CITY           SKY/WX    TMP DP  RH WIND       PRES   REMARKS
NIAGARA FALLS  PTCLDY    73  58  59 NE8       30.11R
BUFFALO        PTCLDY    76  50  40 S7        30.11S
DUNKIRK        CLEAR     71  57  61 VRB6      30.11S
JAMESTOWN      CLEAR     70  52  52 SE3       30.15S
WELLSVILLE     CLEAR     68  52  56 S8        30.19S
ROCHESTER      MOCLDY    71  59  65 NE7       30.13F
PENN YAN       PTCLDY    71  56  58 CALM      30.16S
$$

             KEY
       WCI = WIND CHILL INDEX
       VSB = VISIBILITY
       HX  = HEAT INDEX
$$



USA.gov is the U.S. government's official web portal to all federal, state and local government web resources and services.